This demonstration page uses our WeatherBlox Daily Observations layout. Learn more.

Left ArrowRight Arrow

39.29038, -76.61219

Hourly Observations for November 27, 2018

Temp ( °F °C ) Dew Point ( °F °C ) Humidity (%) Winds ( mph kmh ) Pressure ( in mb ) Visibility ( mi km ) Precip ( " mm )
12:54 am 00:54 undefined 42 5.6 29 -1.7 60 60 undefined N/A 29.55 1001 N/A 0.00 0.00
1:54 am 01:54 undefined 42 5.6 29 -1.7 60 60 undefined N/A 29.55 1001 N/A 0.00 0.00
2:54 am 02:54 undefined 42 5.6 28 -2.2 58 58 undefined N/A 29.57 1002 N/A 0.00 0.00
3:54 am 03:54 undefined 42 5.6 26 -3.3 53 53 undefined N/A 29.57 1002 N/A 0.00 0.00
4:54 am 04:54 undefined 41 5 25 -3.9 53 53 undefined N/A 29.59 1002 N/A 0.00 0.00
5:54 am 05:54 undefined 40 4.4 24 -4.4 53 53 undefined N/A 29.60 1002 N/A 0.00 0.00
6:54 am 06:54 undefined 40 4.4 24 -4.4 53 53 undefined N/A 29.63 1004 N/A 0.00 0.00
7:54 am 07:54 undefined 40 4.4 24 -4.4 53 53 undefined N/A 29.65 1004 N/A 0.00 0.00
8:54 am 08:54 undefined 42 5.6 23 -5 47 47 undefined N/A 29.67 1005 N/A 0.00 0.00
9:54 am 09:54 undefined 42 5.6 23 -5 47 47 undefined N/A 29.67 1005 N/A 0.00 0.00
10:54 am 10:54 undefined 41 5 22 -5.6 47 47 undefined N/A 29.67 1005 N/A 0.00 0.00
11:54 am 11:54 undefined 41 5 22 -5.6 47 47 undefined N/A 29.66 1004 N/A 0.00 0.00
12:54 pm 12:54 undefined 42 5.6 21 -6.1 43 43 undefined N/A 29.67 1005 N/A 0.00 0.00
1:54 pm 13:54 undefined 41 5 20 -6.7 43 43 undefined N/A 29.62 1003 N/A 0.00 0.00
2:54 pm 14:54 undefined 41 5 20 -6.7 43 43 undefined N/A 29.62 1003 N/A 0.00 0.00
3:54 pm 15:54 undefined 40 4.4 20 -6.7 45 45 undefined N/A 29.61 1003 N/A 0.00 0.00
4:54 pm 16:54 undefined 39 3.9 20 -6.7 46 46 undefined N/A 29.64 1004 N/A 0.00 0.00
5:54 pm 17:54 undefined 38 3.3 20 -6.7 48 48 undefined N/A 29.65 1004 N/A 0.00 0.00
6:54 pm 18:54 undefined 37 2.8 20 -6.7 50 50 undefined N/A 29.66 1005 N/A 0.00 0.00
7:54 pm 19:54 undefined 37 2.8 17 -8.3 44 44 undefined N/A 29.65 1004 N/A 0.00 0.00
8:54 pm 20:54 undefined 36 2.2 17 -8.3 46 46 undefined N/A 29.65 1004 N/A 0.00 0.00
9:54 pm 21:54 undefined 36 2.2 17 -8.3 46 46 undefined N/A 29.65 1004 N/A 0.00 0.00
10:54 pm 22:54 undefined 36 2.2 18 -7.8 48 48 undefined N/A 29.65 1004 N/A 0.00 0.00
11:54 pm 23:54 undefined 36 2.2 19 -7.2 50 50 undefined N/A 29.64 1004 N/A 0.00 0.00

Powered by AerisWeather